User: anonymous   Login
Location: Albany
(35.0000°S, 118.0000°E)
Time: 13:51:47
(UTC-04:00)
Language:

Transit 2A - Orbit

View from above orbital plane
View from above orbital plane
View from above satellite
View from above satellite

Ground track
Ground track

The orbit data is extracted from the following two-line orbital elements,

1 00045U 60007A   15091.16702869  .00000347  00000-0  11218-3 0  9997
2 00045 066.6967 358.2030 0263876 261.8263 095.2832 14.33302533849751
Epoch (UTC): 01 April 2015 04:00:31
Eccentricity: 0.0263876
inclination: 66.6967°
perigee height: 592 km
apogee height: 969 km
right ascension of ascending node: 358.2030°
argument of perigee: 261.8263°
revolutions per day: 14.33302533
mean anomaly at epoch: 95.2832°
orbit number at epoch: 84975

The dashed part of the orbit path shows where the satellite is in the earth's shadow,  

DLR